Flag for U.S.A. Weather past 2 weeks in Fairfax, Virginia, U.S.A.

Now
62 °F

Overcast.


Feels Like: 62 °F
Forecast: 59 / 78 °F
Wind: 5 mph from Southeast

Location: Washington-Dulles International Airport

Current Time: Sep 20, 2014 at 4:14:17 AM

Latest Report: Sep 20, 2014 at 3:52 AM


Visibility: 10 mi

Pressure: 30.25 "Hg

Humidity: 93%

Dew point: 60 °F

Location of FairfaxLocation

Historic Weather in Fairfax — Graph

°F

Fairfax temperature yesterday

Maximum temperature yesterday: 72 °F (at 4:52 PM)
Minimum temperature yesterday: 54 °F (at 6:52 AM)
Average temperature yesterday: 63 °F

Past Weeks' High & Low Weather Summary

 TemperatureHumidityPressure
High90 °F (Sep 6, 2:52 PM)100% (Sep 5, 6:52 AM)30.34 "Hg (Sep 5, 6:52 AM)
Low45 °F (Sep 14, 6:52 AM)36% (Sep 18, 4:52 PM)29.85 "Hg (Sep 6, 4:52 PM)
Average67 °F73%30.10 "Hg
* Reported Sep 5 2:52 AM — Sep 20 2:52 AM, Fairfax, Weather by CustomWeather, © 2014

Note: Actual official high and low records may vary slightly from our data, if they occured in-between our weather recording intervals... More about our weather records

Advertising

Fairfax weather history for previous 24 hours

 ConditionsComfort  
Time TempWeatherWind HumidityBarometerVisibility
2:52 AM
Sep 20
63 °FMostly cloudy.8 mph90%30.25 "Hg10 mi
1:52 AM63 °FMostly cloudy.9 mph90%30.27 "Hg10 mi
12:52 AM63 °FPassing clouds.8 mph87%30.28 "Hg10 mi
11:52 PM
Sep 19
64 °FPassing clouds.9 mph84%30.28 "Hg10 mi
10:52 PM65 °FOvercast.13 mph81%30.29 "Hg10 mi
9:52 PM66 °FOvercast.8 mph75%30.28 "Hg10 mi
8:52 PM67 °FMostly cloudy.7 mph68%30.27 "Hg10 mi
7:52 PM68 °FOvercast.6 mph57%30.26 "Hg10 mi
6:52 PM69 °FPartly sunny.6 mph57%30.25 "Hg10 mi
5:52 PM71 °FBroken clouds.6 mph53%30.24 "Hg10 mi
4:52 PM72 °FBroken clouds.7 mph49%30.24 "Hg10 mi
3:52 PM71 °FPartly sunny.6 mph57%30.24 "Hg10 mi
2:52 PM70 °FPartly sunny.7 mph59%30.25 "Hg10 mi
1:52 PM70 °FPartly sunny.7 mph59%30.26 "Hg10 mi
12:52 PM69 °FScattered clouds.5 mph61%30.27 "Hg10 mi
11:52 AM67 °FPartly sunny.6 mph63%30.27 "Hg10 mi
10:52 AM62 °FPartly sunny.6 mph73%30.27 "Hg10 mi
9:52 AM61 °FPartly sunny.6 mph72%30.26 "Hg10 mi
8:52 AM57 °FPartly sunny.6 mph78%30.25 "Hg10 mi
7:52 AM55 °FPartly cloudy.7 mph80%30.24 "Hg10 mi
6:52 AM54 °FPartly cloudy.6 mph83%30.22 "Hg10 mi
5:52 AM56 °FPassing clouds.7 mph77%30.19 "Hg10 mi
4:52 AM56 °FPassing clouds.6 mph84%30.16 "Hg10 mi
Weather by CustomWeather, © 2014

See weather overviewHow to use our weather pages